datetime,max air temp
2000-04-19,49.48
2000-04-20,62.14
2000-04-21,67.53
2000-04-22,51.96
2000-04-23,47.14
2000-04-24,56.92
2000-04-25,57.96
2000-04-26,71.8
2000-04-27,64.75
2000-04-28,46.5
2000-04-29,62.19
2000-04-30,75.9
2000-05-01,66.31
2000-05-02,63.28
2000-05-03,61.68
2000-05-04,58.31
2000-05-05,55.38
2000-05-06,52.89
2000-05-07,53.66
2000-05-08,59.86
2000-05-09,56.22
2000-05-10,41.31
2000-05-11,47.54
2000-05-12,55.21
2000-05-13,55.65
2000-05-14,61.46
2000-05-15,56.07
2000-05-16,58.9
2000-05-17,61.7
2000-05-18,69.71
2000-05-19,74.7
2000-05-20,78.3
2000-05-21,83.2
2000-05-22,74.4
2000-05-23,76.7
2000-05-24,73.8
2000-05-25,66.12
2000-05-26,70.7
2000-05-27,72.9
2000-05-28,65.85
2000-05-29,62.23
2000-05-30,50.45
2000-05-31,64.6
2000-06-01,78.3
2000-06-02,77.9
2000-06-03,82.4
2000-06-04,80.0
2000-06-05,71.5
2000-06-06,73.9
2000-06-07,70.1
2000-06-08,57.2
2000-06-09,59.94
2000-06-10,57.01
2000-06-11,63.17
2000-06-12,64.16
2000-06-13,81.2
2000-06-14,87.3
2000-06-15,81.3
2000-06-16,76.0
2000-06-17,80.0
2000-06-18,75.0
2000-06-19,75.3
2000-06-20,80.8
2000-06-21,85.8
2000-06-22,83.4
2000-06-23,83.8
2000-06-24,83.2
2000-06-25,82.7
2000-06-26,86.0
2000-06-27,85.0
2000-06-28,88.4
2000-06-29,88.1
2000-06-30,79.8
2000-07-01,74.8
2000-07-02,71.1
2000-07-03,63.33
2000-07-04,67.16
2000-07-05,57.64
2000-07-06,68.09
2000-07-07,71.4
2000-07-08,71.9
2000-07-09,78.2
2000-07-10,80.6
2000-07-11,85.5
2000-07-12,84.8
2000-07-13,81.6
2000-07-14,79.9
2000-07-15,82.8
2000-07-16,81.2
2000-07-17,82.4
2000-07-18,80.8
2000-07-19,83.2
2000-07-20,86.3
2000-07-21,87.6
2000-07-22,77.8
2000-07-23,82.0
2000-07-24,85.5
2000-07-25,81.4
2000-07-26,79.8
2000-07-27,82.6
2000-07-28,87.0
2000-07-29,92.6
2000-07-30,91.5
2000-07-31,89.6
2000-08-01,90.0
2000-08-02,90.6
2000-08-03,89.5
2000-08-04,87.1
2000-08-05,89.5
2000-08-06,87.3
2000-08-07,90.2
2000-08-08,90.0
2000-08-09,83.1
2000-08-10,77.1
2000-08-11,81.8
2000-08-12,84.1
2000-08-13,78.9
2000-08-14,82.8
2000-08-15,79.8
2000-08-16,82.8
2000-08-17,79.1
2000-08-18,73.4
2000-08-19,72.5
2000-08-20,73.5
2000-08-21,80.3
2000-08-22,88.0
2000-08-23,83.1
2000-08-24,84.5
2000-08-25,84.2
2000-08-26,82.8
2000-08-27,84.0
2000-08-28,85.7
2000-08-29,83.4
2000-08-30,80.4
2000-08-31,73.7
2000-09-01,52.11
2000-09-02,58.4
2000-09-03,59.57
2000-09-04,51.55
2000-09-05,62.83
2000-09-06,69.11
2000-09-07,78.2
2000-09-08,72.0
2000-09-09,73.3
2000-09-10,76.2
2000-09-11,82.6
2000-09-12,84.0
2000-09-13,85.0
2000-09-14,76.6
2000-09-15,75.0
2000-09-16,71.9
2000-09-17,79.9
2000-09-18,83.8
2000-09-19,85.5
2000-09-20,80.0
2000-09-21,70.7
2000-09-22,56.18
2000-09-23,62.92
2000-09-24,72.9
2000-09-25,74.3
2000-09-26,75.2
2000-09-27,77.9
2000-09-28,75.1
2000-09-29,76.2
2000-09-30,78.2
2000-10-01,71.2
2000-10-02,68.21
2000-10-03,70.4
2000-10-04,70.2
2000-10-05,73.5
2000-10-06,77.3
2000-10-07,80.2
2000-10-08,80.0
2000-10-09,58.32
2000-10-10,46.53
2000-10-11,50.77
2000-10-12,52.36
2000-10-13,57.38
2000-10-14,60.14
2000-10-15,62.7
2000-10-16,67.52
2000-10-17,68.9
2000-10-18,63.28
2000-10-19,67.34
2000-10-20,52.99
2000-10-21,48.69
2000-10-22,52.63
2000-10-23,60.77
2000-10-24,65.35
2000-10-25,51.25
2000-10-26,54.09
2000-10-27,55.79
2000-10-28,46.54
2000-10-29,47.34
2000-10-30,50.45
2000-10-31,54.14
2000-11-01,44.37
2000-11-02,55.67
2000-11-03,58.16
2000-11-04,58.73
2000-11-05,50.04
2000-11-06,48.04
2000-11-07,44.01
2000-11-08,42.84
2000-11-09,39.2
2000-11-10,37.3
2000-11-11,39.1
2000-11-12,45.55
2000-11-13,39.91
2000-11-14,35.94
2000-11-15,34.77
2000-11-16,33.62
2000-11-17,26.11
2000-11-18,32.19
2000-11-19,33.31
2000-11-20,40.84
2000-11-21,42.04
2000-11-22,50.2
2000-11-23,40.21
2000-11-24,37.62
2000-11-25,42.99
2000-11-26,43.22
2000-11-27,48.2
2000-11-28,46.78
2000-11-29,45.14
2000-11-30,44.75
2000-12-01,44.36
2000-12-02,50.82
2000-12-03,45.06
2000-12-04,49.96
2000-12-05,53.1
2000-12-06,51.62
2000-12-07,44.85
2000-12-08,48.62
2000-12-09,41.43
2000-12-10,39.49
2000-12-11,33.58
2000-12-12,32.75
2000-12-13,39.54
2000-12-14,39.99
2000-12-15,39.3
2000-12-16,45.7
2000-12-17,37.65
2000-12-18,39.87
2000-12-19,49.24
2000-12-20,43.52
2000-12-21,46.97
2000-12-22,44.37
2000-12-23,38.75
2000-12-24,38.13
2000-12-25,39.02
2000-12-26,45.39
2000-12-27,42.89
2000-12-28,47.93
2000-12-29,46.14
2000-12-30,47.41
2000-12-31,48.28
2001-01-01,49.23
2001-01-02,56.87
2001-01-03,48.39
2001-01-04,56.03
2001-01-05,55.65
2001-01-06,46.81
2001-01-07,47.29
2001-01-08,45.39
2001-01-09,37.94
2001-01-10,42.26
2001-01-11,36.58
2001-01-12,30.77
2001-01-13,34.59
2001-01-14,35.78
2001-01-15,35.96
2001-01-16,32.86
2001-01-17,36.1
2001-01-18,37.13
2001-01-19,48.43
2001-01-20,45.79
2001-01-21,42.7
2001-01-22,52.18
2001-01-23,45.57
2001-01-24,34.79
2001-01-25,38.21
2001-01-26,38.4
2001-01-27,43.4
2001-01-28,40.74
2001-01-29,34.93
2001-01-30,35.32
2001-01-31,43.03
2001-02-01,41.35
2001-02-02,50.0
2001-02-03,43.11
2001-02-04,47.76
2001-02-05,48.75
2001-02-06,31.19
2001-02-07,36.95
2001-02-08,37.15
2001-02-09,34.57
2001-02-10,37.43
2001-02-11,32.89
2001-02-12,36.92
2001-02-13,42.26
2001-02-14,43.06
2001-02-15,45.77
2001-02-16,44.15
2001-02-17,48.55
2001-02-18,45.71
2001-02-19,46.76
2001-02-20,45.58
2001-02-21,47.21
2001-02-22,40.86
2001-02-23,36.66
2001-02-24,36.16
2001-02-25,43.9
2001-02-26,51.13
2001-02-27,50.1
2001-02-28,48.82
2001-03-01,41.62
2001-03-02,38.12
2001-03-03,35.45
2001-03-04,42.94
2001-03-05,49.43
2001-03-06,63.67
2001-03-07,65.8
2001-03-08,48.43
2001-03-09,43.98
2001-03-10,52.3
2001-03-11,53.38
2001-03-12,63.89
2001-03-13,59.81
2001-03-14,55.98
2001-03-15,43.79
2001-03-16,44.85
2001-03-17,50.43
2001-03-18,62.76
2001-03-19,59.89
2001-03-20,60.14
2001-03-21,65.55
2001-03-22,66.2
2001-03-23,67.88
2001-03-24,59.2
2001-03-25,50.08
2001-03-26,48.91
2001-03-27,54.2
2001-03-28,55.82
2001-03-29,57.01
2001-03-30,62.39
2001-03-31,63.53
2001-04-01,59.55
2001-04-02,38.56
2001-04-03,41.1
2001-04-04,49.5
2001-04-05,54.73
2001-04-06,39.29
2001-04-07,38.02
2001-04-08,38.85
2001-04-09,45.87
2001-04-10,44.73
2001-04-11,44.55
2001-04-12,46.97
2001-04-13,46.62
2001-04-14,55.07
2001-04-15,58.38
2001-04-16,60.13
2001-04-17,58.61
2001-04-18,42.88
2001-04-19,47.27
2001-04-20,44.97
2001-04-21,54.05
2001-04-22,58.59
2001-04-23,64.55
2001-04-24,75.0
2001-04-25,76.8
2001-04-26,75.1
2001-04-27,68.71
2001-04-28,51.22
2001-04-29,62.0
2001-04-30,64.93
2001-05-01,51.02
2001-05-02,55.9
2001-05-03,65.72
2001-05-04,72.1
2001-05-05,65.97
2001-05-06,71.8
2001-05-07,81.4
2001-05-08,80.2
2001-05-09,74.6
2001-05-10,78.8
2001-05-11,85.3
2001-05-12,75.2
2001-05-13,72.5
2001-05-14,59.01
2001-05-15,58.91
2001-05-16,62.8
2001-05-17,71.4
2001-05-18,72.5
2001-05-19,76.7
2001-05-20,77.8
2001-05-21,80.7
2001-05-22,88.6
2001-05-23,87.8
2001-05-24,84.9
2001-05-25,84.6
2001-05-26,82.2
2001-05-27,72.9
2001-05-28,67.64
2001-05-29,72.9
2001-05-30,81.1
2001-05-31,89.4
2001-06-01,74.9
2001-06-02,61.35
2001-06-03,57.83
2001-06-04,69.22
2001-06-05,62.69
2001-06-06,74.1
2001-06-07,78.1
2001-06-08,79.2
2001-06-09,75.5
2001-06-10,69.24
2001-06-11,66.02
2001-06-12,63.71
2001-06-13,71.8
2001-06-14,77.7
2001-06-15,79.6
2001-06-16,81.9
2001-06-17,75.9
2001-06-18,77.4
2001-06-19,83.1
2001-06-20,88.0
2001-06-21,88.0
2001-06-22,89.4
2001-06-23,82.3
2001-06-24,65.8
2001-06-25,69.44
2001-06-26,61.04
2001-06-27,65.07
2001-06-28,75.2
2001-06-29,80.5
2001-06-30,86.4
2001-07-01,86.0
2001-07-02,91.2
2001-07-03,89.9
2001-07-04,94.9
2001-07-05,90.2
2001-07-06,87.5
2001-07-07,84.8
2001-07-08,88.1
2001-07-09,89.7
2001-07-10,86.6
2001-07-11,75.7
2001-07-12,80.6
2001-07-13,83.4
2001-07-14,83.1
2001-07-15,78.8
2001-07-16,72.6
2001-07-17,72.7
2001-07-18,74.5
2001-07-19,77.7
2001-07-20,74.6
2001-07-21,73.1
2001-07-22,80.6
2001-07-23,85.0
2001-07-24,89.3
2001-07-25,90.9
2001-07-26,89.4
2001-07-27,89.2
2001-07-28,79.7
2001-07-29,77.1
2001-07-30,71.1
2001-07-31,77.9
2001-08-01,85.0
2001-08-02,88.0
2001-08-03,84.2
2001-08-04,79.0
2001-08-05,86.0
2001-08-06,91.7
2001-08-07,93.9
2001-08-08,96.7
2001-08-09,93.4
2001-08-10,93.6
2001-08-11,90.2
2001-08-12,90.7
2001-08-13,89.7
2001-08-14,89.0
2001-08-15,91.5
2001-08-16,90.2
2001-08-17,89.4
2001-08-18,80.5
2001-08-19,84.0
2001-08-20,81.1
2001-08-21,77.4
2001-08-22,75.3
2001-08-23,71.8
2001-08-24,78.4
2001-08-25,87.8
2001-08-26,89.8
2001-08-27,87.4
2001-08-28,85.2
2001-08-29,89.3
2001-08-30,87.1
2001-08-31,84.6
2001-09-01,83.2
2001-09-02,83.8
2001-09-03,84.4
2001-09-04,83.8
2001-09-05,64.75
2001-09-06,72.8
2001-09-07,80.1
2001-09-08,79.3
2001-09-09,84.7
2001-09-10,82.7
2001-09-11,74.5
2001-09-12,77.9
2001-09-13,64.14
2001-09-14,77.7
2001-09-15,76.5
2001-09-16,73.8
2001-09-17,80.6
2001-09-18,80.6
2001-09-19,81.0
2001-09-20,82.3
2001-09-21,80.9
2001-09-22,86.9
2001-09-23,79.3
2001-09-24,79.2
2001-09-25,62.13
2001-09-26,65.22
2001-09-27,66.53
2001-09-28,66.91
2001-09-29,75.9
2001-09-30,84.7
2001-10-01,84.0
2001-10-02,82.9
2001-10-03,84.9
2001-10-04,80.7
2001-10-05,76.8
2001-10-06,75.1
2001-10-07,68.58
2001-10-08,62.01
2001-10-09,59.26
2001-10-10,66.94
2001-10-11,55.87
2001-10-12,67.26
2001-10-13,70.5
2001-10-14,75.3
2001-10-15,71.7
2001-10-16,67.84
2001-10-17,58.12
2001-10-18,66.15
2001-10-19,72.9
2001-10-20,72.4
2001-10-21,66.79
2001-10-22,59.99
2001-10-23,50.86
2001-10-24,53.11
2001-10-25,64.16
2001-10-26,73.1
2001-10-27,67.71
2001-10-28,56.71
2001-10-29,55.49
2001-10-30,60.28
2001-10-31,55.09
2001-11-01,57.23
2001-11-02,56.98
2001-11-03,65.48
2001-11-04,67.02
2001-11-05,61.51
2001-11-06,47.53
2001-11-07,53.55
2001-11-08,60.75
2001-11-09,60.11
2001-11-10,62.54
2001-11-11,56.93
2001-11-12,51.37
2001-11-13,44.82
2001-11-14,57.17
2001-11-15,55.68
2001-11-16,51.76
2001-11-17,46.01
2001-11-18,50.47
2001-11-19,54.66
2001-11-20,47.27
2001-11-21,45.34
2001-11-22,43.36
2001-11-23,36.54
2001-11-24,33.36
2001-11-25,41.82
2001-11-26,32.66
2001-11-27,22.73
2001-11-28,33.5
2001-11-29,33.32
2001-11-30,37.78
2001-12-01,36.07
2001-12-02,39.38
2001-12-03,34.21
2001-12-04,33.77
2001-12-05,40.25
2001-12-06,41.33
2001-12-07,36.69
2001-12-08,39.72
2001-12-09,37.07
2001-12-10,36.6
2001-12-11,34.99
2001-12-12,29.64
2001-12-13,38.58
2001-12-14,33.55
2001-12-15,31.18
2001-12-16,38.98
2001-12-17,37.47
2001-12-18,37.64
2001-12-19,39.08
2001-12-20,34.26
2001-12-21,29.49
2001-12-22,40.42
2001-12-23,39.67
2001-12-24,32.06
2001-12-25,32.78
2001-12-26,37.49
2001-12-27,44.35
2001-12-28,45.59
2001-12-29,38.17
2001-12-30,38.45
2001-12-31,38.4
2002-01-01,43.01
2002-01-02,45.32
2002-01-03,40.6
2002-01-04,36.12
2002-01-05,43.17
2002-01-06,47.61
2002-01-07,55.71
2002-01-08,47.89
2002-01-09,43.71
2002-01-10,42.8
2002-01-11,42.72
2002-01-12,43.05
2002-01-13,39.24
2002-01-14,31.2
2002-01-15,34.09
2002-01-16,38.33
2002-01-17,42.39
2002-01-18,35.96
2002-01-19,32.66
2002-01-20,44.15
2002-01-21,37.72
2002-01-22,28.45
2002-01-23,33.05
2002-01-24,34.58
2002-01-25,39.68
2002-01-26,35.54
2002-01-27,30.98
2002-01-28,27.56
2002-01-29,31.4
2002-01-30,32.71
2002-01-31,30.79
2002-02-01,39.46
2002-02-02,35.28
2002-02-03,45.23
2002-02-04,45.58
2002-02-05,45.02
2002-02-06,45.47
2002-02-07,43.63
2002-02-08,40.24
2002-02-09,43.83
2002-02-10,49.11
2002-02-11,43.87
2002-02-12,46.97
2002-02-13,51.9
2002-02-14,47.06
2002-02-15,45.79
2002-02-16,45.23
2002-02-17,39.72
2002-02-18,44.28
2002-02-19,41.41
2002-02-20,52.67
2002-02-21,55.09
2002-02-22,60.13
2002-02-23,44.59
2002-02-24,50.16
2002-02-25,48.31
2002-02-26,54.74
2002-02-27,55.68
2002-02-28,46.76
2002-03-01,45.53
2002-03-02,46.4
2002-03-03,52.19
2002-03-04,55.58
2002-03-05,49.06
2002-03-06,48.59
2002-03-07,37.24
2002-03-08,33.65
2002-03-09,42.42
2002-03-10,45.14
2002-03-11,54.47
2002-03-12,44.95
2002-03-13,37.61
2002-03-14,39.91
2002-03-15,39.86
2002-03-16,33.25
2002-03-17,34.63
2002-03-18,43.33
2002-03-19,58.07
2002-03-20,63.75
2002-03-21,63.05
2002-03-22,55.36
2002-03-23,48.46
2002-03-24,48.46
2002-03-25,53.56
2002-03-26,57.24
2002-03-27,58.57
2002-03-28,63.88
2002-03-29,68.5
2002-03-30,70.6
2002-03-31,72.3
2002-04-01,71.0
2002-04-02,72.3
2002-04-03,72.3
2002-04-04,76.0
2002-04-05,60.07
2002-04-06,56.76
2002-04-07,59.68
2002-04-08,66.18
2002-04-09,53.03
2002-04-10,59.98
2002-04-11,60.97
2002-04-12,66.62
2002-04-13,68.65
2002-04-14,59.59
2002-04-15,43.54
2002-04-16,41.17
2002-04-17,39.51
2002-04-18,45.66
2002-04-19,53.46
2002-04-20,56.12
2002-04-21,61.9
2002-04-22,66.49
2002-04-23,62.64
2002-04-24,69.66
2002-04-25,68.1
2002-04-26,54.88
2002-04-27,45.43
2002-04-28,53.13
2002-04-29,51.38
2002-04-30,38.35
2002-05-01,58.27
2002-05-02,64.58
2002-05-03,61.86
2002-05-04,66.33
2002-05-05,62.22
2002-05-06,59.3
2002-05-07,51.46
2002-05-08,59.93
2002-05-09,55.68
2002-05-10,52.28
2002-05-11,64.9
2002-05-12,73.5
2002-05-13,65.62
2002-05-14,66.39
2002-05-15,62.91
2002-05-16,71.2
2002-05-17,72.2
2002-05-18,66.82
2002-05-19,49.63
2002-05-20,51.78
2002-05-21,53.07
2002-05-22,55.1
2002-05-23,65.87
2002-05-24,73.7
2002-05-25,73.6
2002-05-26,73.4
2002-05-27,67.17
2002-05-28,73.2
2002-05-29,77.8
2002-05-30,77.6
2002-05-31,79.0
2002-06-01,66.92
2002-06-02,68.86
2002-06-03,73.4
2002-06-04,75.5
2002-06-05,76.6
2002-06-06,74.4
2002-06-07,64.55
2002-06-08,51.44
2002-06-09,59.73
2002-06-10,69.79
2002-06-11,77.1
2002-06-12,85.1
2002-06-13,87.2
2002-06-14,82.4
2002-06-15,86.5
2002-06-16,77.2
2002-06-17,69.3
2002-06-18,66.02
2002-06-19,73.4
2002-06-20,80.7
2002-06-21,79.2
2002-06-22,79.4
2002-06-23,78.1
2002-06-24,84.7
2002-06-25,89.4
2002-06-26,89.8
2002-06-27,79.5
2002-06-28,75.3
2002-06-29,76.7
2002-06-30,78.3
2002-07-01,82.7
2002-07-02,86.6
2002-07-03,77.1
2002-07-04,76.4
2002-07-05,82.9
2002-07-06,83.9
2002-07-07,79.8
2002-07-08,81.4
2002-07-09,92.1
2002-07-10,93.6
2002-07-11,97.7
2002-07-12,97.7
2002-07-13,92.0
2002-07-14,87.2
2002-07-15,87.0
2002-07-16,84.7
2002-07-17,86.1
2002-07-18,83.8
2002-07-19,83.0
2002-07-20,88.1
2002-07-21,92.0
2002-07-22,83.1
2002-07-23,85.2
2002-07-24,85.7
2002-07-25,85.3
2002-07-26,84.2
2002-07-27,82.7
2002-07-28,88.0
2002-07-29,87.3
2002-07-30,85.7
2002-07-31,85.8
2002-08-01,87.3
2002-08-02,82.3
2002-08-03,81.9
2002-08-04,59.66
2002-08-05,68.16
2002-08-06,66.64
2002-08-07,74.3
2002-08-08,80.5
2002-08-09,86.4
2002-08-10,92.0
2002-08-11,91.0
2002-08-12,90.7
2002-08-13,92.3
2002-08-14,94.8
2002-08-15,93.2
2002-08-16,91.9
2002-08-17,85.3
2002-08-18,84.5
2002-08-19,76.6
2002-08-20,66.45
2002-08-21,70.9
2002-08-22,77.9
2002-08-23,77.5
2002-08-24,80.4
2002-08-25,78.0
2002-08-26,76.3
2002-08-27,79.2
2002-08-28,81.6
2002-08-29,84.5
2002-08-30,81.1
2002-08-31,80.9
2002-09-01,87.8
2002-09-02,87.8
2002-09-03,81.7
2002-09-04,75.0
2002-09-05,65.46
2002-09-06,63.66
2002-09-07,63.18
2002-09-08,70.6
2002-09-09,80.3
2002-09-10,84.9
2002-09-11,89.2
2002-09-12,87.9
2002-09-13,88.3
2002-09-14,79.9
2002-09-15,80.3
2002-09-16,68.72
2002-09-17,62.57
2002-09-18,73.1
2002-09-19,79.9
2002-09-20,82.3
2002-09-21,80.0
2002-09-22,84.5
2002-09-23,89.7
2002-09-24,84.7
2002-09-25,76.2
2002-09-26,79.5
2002-09-27,67.17
2002-09-28,68.77
2002-09-29,59.28
2002-09-30,54.15
2002-10-01,53.1
2002-10-02,59.84
2002-10-03,60.72
2002-10-04,66.4
2002-10-05,71.1
2002-10-06,76.2
2002-10-07,80.1
2002-10-08,74.4
2002-10-09,74.3
2002-10-10,65.22
2002-10-11,58.74
2002-10-12,70.3
2002-10-13,74.1
2002-10-14,76.1
2002-10-15,74.6
2002-10-16,74.9
2002-10-17,79.9
2002-10-18,71.6
2002-10-19,69.7
2002-10-20,63.66
2002-10-21,62.08
2002-10-22,63.63
2002-10-23,62.7
2002-10-24,58.23
2002-10-25,60.06
2002-10-26,58.32
2002-10-27,54.88
2002-10-28,59.29
2002-10-29,49.77
2002-10-30,42.99
2002-10-31,44.6
2002-11-01,46.59
2002-11-02,52.48
2002-11-03,58.01
2002-11-04,62.09
2002-11-05,63.37
2002-11-06,58.88
2002-11-07,51.37
2002-11-08,48.55
2002-11-09,43.65
2002-11-10,45.13
2002-11-11,49.68
2002-11-12,49.08
2002-11-13,40.83
2002-11-14,52.7
2002-11-15,48.31
2002-11-16,58.49
2002-11-17,47.74
2002-11-18,48.64
2002-11-19,61.38
2002-11-20,64.17
2002-11-21,59.14
2002-11-22,53.8
2002-11-23,57.73
2002-11-24,48.22
2002-11-25,46.8
2002-11-26,52.81
2002-11-27,57.86
2002-11-28,56.33
2002-11-29,52.2
2002-11-30,50.61
2002-12-01,48.57
2002-12-02,49.43
2002-12-03,47.72
2002-12-04,50.93
2002-12-05,40.6
2002-12-06,51.43
2002-12-07,53.04
2002-12-08,41.61
2002-12-09,47.77
2002-12-10,42.77
2002-12-11,41.44
2002-12-12,46.29
2002-12-13,45.97
2002-12-14,51.44
2002-12-15,43.96
2002-12-16,41.33
2002-12-17,35.16
2002-12-18,35.14
2002-12-19,33.75
2002-12-20,37.16
2002-12-21,36.79
2002-12-22,36.33
2002-12-23,34.31
2002-12-24,35.22
2002-12-25,35.7
2002-12-26,42.26
2002-12-27,45.59
2002-12-28,43.13
2002-12-29,37.32
2002-12-30,39.34
2002-12-31,40.41
2003-01-01,36.8
2003-01-02,50.67
2003-01-03,48.49
2003-01-04,55.54
2003-01-05,47.19
2003-01-06,49.06
2003-01-07,50.35
2003-01-08,50.72
2003-01-09,39.23
2003-01-10,43.14
2003-01-11,43.57
2003-01-12,46.16
2003-01-13,45.75
2003-01-14,43.7
2003-01-15,39.22
2003-01-16,36.22
2003-01-17,40.7
2003-01-18,56.1
2003-01-19,53.24
2003-01-20,49.47
2003-01-21,51.87
2003-01-22,50.75
2003-01-23,45.4
2003-01-24,42.47
2003-01-25,54.33
2003-01-26,55.21
2003-01-27,45.02
2003-01-28,41.04
2003-01-29,41.56
2003-01-30,55.66
2003-01-31,56.79
2003-02-01,46.23
2003-02-02,45.85
2003-02-03,46.72
2003-02-04,41.52
2003-02-05,41.73
2003-02-06,39.03
2003-02-07,39.4
2003-02-08,46.32
2003-02-09,48.07
2003-02-10,52.73
2003-02-11,47.37
2003-02-12,54.6
2003-02-13,46.54
2003-02-14,49.83
2003-02-15,44.39
2003-02-16,42.38
2003-02-17,45.17
2003-02-18,45.4
2003-02-19,43.5
2003-02-20,45.62
2003-02-21,45.6
2003-02-22,48.38
2003-02-23,46.19
2003-02-24,44.55
2003-02-25,42.89
2003-02-26,41.02
2003-02-27,42.86
2003-02-28,39.22
2003-03-01,45.7
2003-03-02,50.71
2003-03-03,45.57
2003-03-04,45.44
2003-03-05,50.87
2003-03-06,46.27
2003-03-07,46.79
2003-03-08,55.79
2003-03-09,49.29
2003-03-10,55.72
2003-03-11,56.48
2003-03-12,56.55
2003-03-13,51.8
2003-03-14,49.47
2003-03-15,43.25
2003-03-16,41.16
2003-03-17,44.37
2003-03-18,50.74
2003-03-19,52.33
2003-03-20,50.17
2003-03-21,55.26
2003-03-22,52.18
2003-03-23,45.34
2003-03-24,53.62
2003-03-25,50.71
2003-03-26,44.41
2003-03-27,47.61
2003-03-28,54.5
2003-03-29,63.96
2003-03-30,72.8
2003-03-31,62.81
2003-04-01,50.17
2003-04-02,37.96
2003-04-03,42.24
2003-04-04,39.32
2003-04-05,39.02
2003-04-06,42.81
2003-04-07,59.73
2003-04-08,59.66
2003-04-09,65.21
2003-04-10,57.3
2003-04-11,57.24
2003-04-12,48.8
2003-04-13,47.4
2003-04-14,46.62
2003-04-15,44.77
2003-04-16,48.05
2003-04-17,47.92
2003-04-18,48.76
2003-04-19,59.7
2003-04-20,58.94
2003-04-21,50.5
2003-04-22,51.2
2003-04-23,54.39
2003-04-24,46.33
2003-04-25,44.73
2003-04-26,46.8
2003-04-27,50.3
2003-04-28,49.6
2003-04-29,44.95
2003-04-30,53.72
2003-05-01,60.72
2003-05-02,57.34
2003-05-03,52.08
2003-05-04,48.25
2003-05-05,54.53
2003-05-06,52.22
2003-05-07,52.92
2003-05-08,44.48
2003-05-09,47.3
2003-05-10,52.26
2003-05-11,52.58
2003-05-12,63.79
2003-05-13,72.7
2003-05-14,71.1
2003-05-15,59.82
2003-05-16,57.18
2003-05-17,50.97
2003-05-18,54.34
2003-05-19,66.48
2003-05-20,71.3
2003-05-21,77.7
2003-05-22,80.9
2003-05-23,85.9
2003-05-24,77.9
2003-05-25,68.21
2003-05-26,71.9
2003-05-27,87.5
2003-05-28,83.4
2003-05-29,83.8
2003-05-30,72.9
2003-05-31,72.9
2003-06-01,78.5
2003-06-02,79.1
2003-06-03,85.2
2003-06-04,82.1
2003-06-05,84.1
2003-06-06,89.4
2003-06-07,89.5
2003-06-08,83.0
2003-06-09,75.5
2003-06-10,79.3
2003-06-11,75.6
2003-06-12,73.7
2003-06-13,71.5
2003-06-14,75.0
2003-06-15,78.6
2003-06-16,84.1
2003-06-17,89.0
2003-06-18,75.5
2003-06-19,69.81
2003-06-20,64.86
2003-06-21,62.95
2003-06-22,65.03
2003-06-23,62.17
2003-06-24,71.2
2003-06-25,77.8
2003-06-26,82.9
2003-06-27,86.7
2003-06-28,90.9
2003-06-29,80.1
2003-06-30,80.5
2003-07-01,76.0
2003-07-02,77.4
2003-07-03,79.4
2003-07-04,81.2
2003-07-05,83.1
2003-07-06,82.6
2003-07-07,81.3
2003-07-08,79.0
2003-07-09,85.6
2003-07-10,87.3
2003-07-11,85.8
2003-07-12,80.0
2003-07-13,77.3
2003-07-14,85.9
2003-07-15,84.2
2003-07-16,84.4
2003-07-17,88.7
2003-07-18,91.5
2003-07-19,93.7
2003-07-20,89.6
2003-07-21,96.8
2003-07-22,96.8
2003-07-23,94.9
2003-07-24,75.6
2003-07-25,84.1
2003-07-26,89.8
2003-07-27,89.8
2003-07-28,95.4
2003-07-29,96.2
2003-07-30,97.3
2003-07-31,93.0
2003-08-01,82.6
2003-08-02,74.5
2003-08-03,76.0
2003-08-04,81.9
2003-08-05,73.8
2003-08-06,73.6
2003-08-07,74.8
2003-08-08,78.8
2003-08-09,79.1
2003-08-10,82.1
2003-08-11,77.4
2003-08-12,78.9
2003-08-13,82.2
2003-08-14,87.0
2003-08-15,84.4
2003-08-16,82.0
2003-08-17,87.6
2003-08-18,91.1
2003-08-19,91.5
2003-08-20,89.0
2003-08-21,67.54
2003-08-22,70.4
2003-08-23,78.5
2003-08-24,83.3
2003-08-25,86.9
2003-08-26,80.1
2003-08-27,84.2
2003-08-28,82.9
2003-08-29,83.4
2003-08-30,88.9
2003-08-31,90.1
2003-09-01,90.2
2003-09-02,91.4
2003-09-03,91.3
2003-09-04,84.5
2003-09-05,84.6
2003-09-06,81.1
2003-09-07,69.97
2003-09-08,62.94
2003-09-09,61.58
2003-09-10,70.1
2003-09-11,76.8
2003-09-12,71.6
2003-09-13,75.2
2003-09-14,80.2
2003-09-15,75.9
2003-09-16,60.15
2003-09-17,62.75
2003-09-18,72.8
2003-09-19,76.4
2003-09-20,80.7
2003-09-21,84.6
2003-09-22,87.7
2003-09-23,88.5
2003-09-24,88.4
2003-09-25,86.6
2003-09-26,89.0
2003-09-27,90.1
2003-09-28,87.7
2003-09-29,76.3
2003-09-30,78.2
2003-10-01,76.5
2003-10-02,75.3
2003-10-03,75.3
2003-10-04,74.5
2003-10-05,77.6
2003-10-06,78.0
2003-10-07,68.79
2003-10-08,69.15
2003-10-09,55.07
2003-10-10,55.91
2003-10-11,60.98
2003-10-12,58.65
2003-10-13,64.57
2003-10-14,64.79
2003-10-15,59.99
2003-10-16,71.5
2003-10-17,77.0
2003-10-18,72.8
2003-10-19,72.1
2003-10-20,76.5
2003-10-21,81.0
2003-10-22,74.3
2003-10-23,62.22
2003-10-24,66.0
2003-10-25,71.7
2003-10-26,77.2
2003-10-27,78.9
2003-10-28,76.8
2003-10-29,51.72
2003-10-30,42.85
2003-10-31,41.59
2003-11-01,45.14
2003-11-02,38.84
2003-11-03,36.79
2003-11-04,37.07
2003-11-05,43.12
2003-11-06,40.7
2003-11-07,51.64
2003-11-08,46.93
2003-11-09,45.39
2003-11-10,46.63
2003-11-11,51.12
2003-11-12,54.19
2003-11-13,53.32
2003-11-14,48.88
2003-11-15,43.0
2003-11-16,43.94
2003-11-17,43.41
2003-11-18,53.56
2003-11-19,58.18
2003-11-20,41.9
2003-11-21,34.96
2003-11-22,36.18
2003-11-23,41.97
2003-11-24,36.8
2003-11-25,37.99
2003-11-26,39.49
2003-11-27,37.75
2003-11-28,49.54
2003-11-29,41.02
2003-11-30,45.38
2003-12-01,47.42
2003-12-02,48.07
2003-12-03,54.18
2003-12-04,47.37
2003-12-05,51.52
2003-12-06,49.03
2003-12-07,39.67
2003-12-08,39.91
2003-12-09,39.5
2003-12-10,39.65
2003-12-11,43.04
2003-12-12,36.12
2003-12-13,50.49
2003-12-14,38.28
2003-12-15,30.11
2003-12-16,37.07
2003-12-17,38.23
2003-12-18,40.5
2003-12-19,46.43
2003-12-20,39.18
2003-12-21,37.06
2003-12-22,42.11
2003-12-23,43.46
2003-12-24,41.26
2003-12-25,35.44
2003-12-26,31.25
2003-12-27,35.5
2003-12-28,36.24
2003-12-29,38.28
2003-12-30,32.61
2003-12-31,33.66
2004-01-01,36.02
2004-01-02,29.2
2004-01-03,30.29
2004-01-04,28.52
2004-01-05,26.0
2004-01-06,39.54
2004-01-07,40.07
2004-01-08,40.19
2004-01-09,48.74
2004-01-10,39.52
2004-01-11,36.07
2004-01-12,48.92
2004-01-13,51.5
2004-01-14,41.74
2004-01-15,41.36
2004-01-16,36.72
2004-01-17,30.69
2004-01-18,45.34
2004-01-19,41.58
2004-01-20,46.42
2004-01-21,42.72
2004-01-22,42.89
2004-01-23,38.33
2004-01-24,39.26
2004-01-25,34.45
2004-01-26,32.29
2004-01-27,39.29
2004-01-28,38.0
2004-01-29,49.88
2004-01-30,42.96
2004-01-31,34.79
2004-02-01,42.91
2004-02-02,38.92
2004-02-03,41.88
2004-02-04,43.32
2004-02-05,39.94
2004-02-06,46.98
2004-02-07,37.31
2004-02-08,41.68
2004-02-09,43.5
2004-02-10,46.66
2004-02-11,51.96
2004-02-12,51.85
2004-02-13,43.24
2004-02-14,45.75
2004-02-15,46.5
2004-02-16,47.02
2004-02-17,43.26
2004-02-18,44.8
2004-02-19,45.56
2004-02-20,45.61
2004-02-21,43.28
2004-02-22,45.49
2004-02-23,48.02
2004-02-24,45.83
2004-02-25,39.54
2004-02-26,41.65
2004-02-27,40.25
2004-02-28,42.62
2004-02-29,43.91
2004-03-01,41.73
2004-03-02,45.79
2004-03-03,40.71
2004-03-04,41.72
2004-03-05,42.41
2004-03-06,54.69
2004-03-07,65.83
2004-03-08,66.61
2004-03-09,64.14
2004-03-10,61.91
2004-03-11,62.68
2004-03-12,65.27
2004-03-13,65.43
2004-03-14,61.94
2004-03-15,65.55
2004-03-16,66.99
2004-03-17,69.78
2004-03-18,66.13
2004-03-19,61.47
2004-03-20,72.5
2004-03-21,72.9
2004-03-22,70.6
2004-03-23,61.98
2004-03-24,53.37
2004-03-25,44.95
2004-03-26,43.14
2004-03-27,52.15
2004-03-28,65.71
2004-03-29,69.85
2004-03-30,50.66
2004-03-31,48.43
2004-04-01,52.32
2004-04-02,60.62
2004-04-03,69.61
2004-04-04,69.17
2004-04-05,62.63